Location: Pukehinau
(40.9167°S, 175.7333°E)
Time: 13:05:52
(UTC+00:00)

Daily predictions for brighter satellites

Satellite Brightness Start Highest point End
(mag) Time Altitude Azimuth Time Altitude Azimuth Time Altitude Azimuth
USA 59 Rocket 4.1 13:47:41 11° ESE 13:47:41 11° ESE 13:48:04 10° ESE
USA 59 Rocket 2.1 15:33:20 58° ESE 15:33:20 58° ESE 15:40:10 10° NE
SL-16 R/B 4.4 15:55:24 10° NNE 15:59:36 22° E 16:03:49 10° SE
SL-12 R/B(2) 4.1 16:01:33 69° ENE 16:01:33 69° ENE 16:07:51 10° NE
Cosmos 2237 Rocket 3.8 16:18:13 25° SSE 16:18:13 25° SSE 16:20:28 10° SSE
Cosmos 2074 Rocket 4.4 16:12:44 10° N 16:18:50 58° E 16:24:59 10° SSE
USA 281 3.9 16:14:02 10° SSE 16:20:28 51° ENE 16:26:49 10° N
Cosmos 2369 Rocket 4.3 16:31:31 10° S 16:36:03 23° SE 16:40:31 10° ENE
MOS 1 Rocket 4.4 16:37:43 10° NE 16:41:46 40° ESE 16:44:56 16° S
CZ-4 R/B 4.5 16:38:36 10° NNE 16:43:30 57° ESE 16:46:25 24° S
IRS-1D 3.5 16:40:11 10° NNE 16:45:29 85° ESE 16:45:32 84° ESE
ATLAS 5 CENTAUR R/B 4.3 16:50:09 11° S 16:53:46 18° SSE 16:57:20 10° ESE
Meteor 1-16 Rocket 4.2 16:55:38 64° SW 16:55:38 64° SW 17:00:47 10° S
Cosmos 1869 Rocket 4.3 16:51:52 10° N 16:56:03 52° E 17:00:19 10° SSE
Lacrosse 5 rocket 2.4 16:59:35 34° SE 16:59:35 34° SE 17:02:57 10° ENE
Cosmos 614 Rocket 3.8 17:05:57 50° SSW 17:07:21 80° WNW 17:12:33 10° NNE
Cosmos 2278 Rocket 4.1 17:11:48 15° NNW 17:11:48 15° NNW 17:12:51 10° NNW
USA 215 4.3 17:03:46 10° E 17:09:44 38° SSE 17:14:03 18° SSW
Nadezhda 3 Rocket 3.9 17:06:12 10° S 17:12:37 79° W 17:18:54 10° N
Gbstr 26 Del rocket 4.2 17:15:39 36° SW 17:16:19 37° SSW 17:22:00 10° SE
Cosmos 1400 Rocket 3.8 17:15:57 10° NNE 17:19:32 45° E 17:23:08 10° SSE
USA 59 Rocket 2.1 17:18:58 33° W 17:21:09 38° WNW 17:27:47 10° N
Landsat 7 4.3 17:17:33 10° NNE 17:22:09 59° ESE 17:26:48 10° S
Meteor 1-12 Rocket 4.3 17:17:19 10° NNW 17:22:53 55° WSW 17:28:36 10° S
Cosmos 1125 Rocket 3.9 17:23:17 41° WSW 17:23:17 41° WSW 17:28:04 10° S
Cosmos 2150 Rocket 4.3 17:22:23 10° N 17:27:44 71° ENE 17:33:03 10° SSE
SL-4 R/B 3.8 17:35:31 13° S 17:35:34 13° S 17:37:19 10° SSE
Cosmos 1656 Rocket 3.7 17:33:11 22° SW 17:36:43 58° WNW 17:42:04 10° N
Meteor 1-28 Rocket 3.5 17:34:15 10° SSE 17:37:33 56° E 17:40:47 10° N
Cosmos 2218 Rocket 4.5 17:35:28 10° N 17:41:46 66° E 17:48:04 10° SSE
SL-16 R/B 2.5 17:36:26 10° S 17:42:42 71° WSW 17:48:56 10° NNW
SL-16 R/B 2.3 17:37:41 10° NW 17:43:14 53° WSW 17:48:50 10° SSE
NOSS 3-1 (A) 4.4 17:37:50 10° SSW 17:44:03 40° SE 17:49:00 10° ENE
Cosmos 1733 Rocket 3.1 17:44:39 10° N 17:48:57 78° E 17:53:20 10° S
SL-8 Rocket 4.0 17:44:48 10° N 17:50:58 88° W 17:57:15 10° S
Cosmos 1346 Rocket 3.9 17:50:26 10° S 17:54:00 42° ESE 17:57:29 10° NNE
SPOT 1/Viking Rocket 4.2 17:49:09 10° NNE 17:54:13 58° ESE 17:59:22 10° S
Cosmos 2237 Rocket 4.0 18:00:03 13° SW 18:00:03 13° SW 18:02:23 10° SSW
Cosmos 2242 Rocket 3.7 17:59:27 10° S 18:04:06 89° ENE 18:08:41 10° N
USA 281 3.9 17:58:54 10° S 18:04:41 33° SW 18:10:25 10° WNW
Thor Agena Rocket 3.9 18:03:04 10° NNE 18:08:17 71° ESE 18:13:37 10° S
USA 276 4.2 18:08:14 12° SSW 18:09:21 14° S 18:10:59 10° SE
AQUARIUS 4.3 18:05:48 10° NNE 18:10:14 80° ESE 18:14:44 10° S
Aureole 3 2.6 18:07:52 10° S 18:10:56 83° E 18:13:55 10° N
Meteor 2-15 4.4 18:06:58 10° NNW 18:13:03 72° W 18:19:13 10° S
SMAP 3.4 18:13:44 10° N 18:18:12 44° W 18:22:44 10° SSW
Resurs 01 Rocket 4.0 18:14:42 10° ENE 18:18:17 24° ESE 18:21:55 10° SSE
CZ-2D R/B 3.3 18:16:01 10° NNE 18:18:56 56° ESE 18:21:54 10° S
COSMOS 2455 3.5 18:13:19 10° SSW 18:19:19 58° ESE 18:25:15 10° NE
Cosmos 2369 Rocket 2.3 18:14:48 10° SSW 18:20:26 57° WNW 18:25:59 10° N
Cosmos 2366 rocket 4.1 18:14:14 10° NNW 18:20:30 58° W 18:26:50 10° S
NOSS 3-1 (C) 3.5 18:15:41 10° SW 18:21:37 46° WNW 18:26:23 10° N
SJ-12 3.8 18:18:06 10° NNE 18:21:53 80° ESE 18:25:43 10° S
USA 32 4.1 18:19:33 10° N 18:24:48 88° E 18:30:07 10° S
UNK 3.9 18:20:44 10° S 18:25:17 53° WSW 18:29:47 10° NNW
Cosmos 2285 Rocket 4.2 18:21:52 10° NW 18:28:08 55° WSW 18:34:31 10° SSE
Meteor 2-15 Rocket 4.4 18:24:35 10° NNW 18:30:43 74° W 18:36:54 10° S
Cosmos 1025 Rocket 3.2 18:26:57 10° S 18:31:18 79° E 18:35:34 10° N
Cosmos 1140 Rocket 3.8 18:27:17 10° SSW 18:32:36 76° ESE 18:37:50 10° NNE
Cosmos 1943 3.3 18:28:26 10° NW 18:33:57 54° WSW 18:39:33 10° SSE
Cosmos 1484 Rocket 3.9 18:33:23 10° NW 18:35:59 20° W 18:38:37 10° SW
Lacrosse 5 rocket 2.3 18:32:51 10° WSW 18:36:01 26° NW 18:39:10 10° N
Cosmos 1269 Rocket 4.3 18:31:36 10° SSW 18:36:57 74° ESE 18:42:13 10° NNE
ATLAS 5 CENTAUR R/B 2.0 18:31:24 10° SSW 18:37:03 82° SE 18:41:32 10° NE
Cosmos 2221 Rocket 4.0 18:39:09 10° S 18:43:40 70° E 18:48:05 10° NNE
Resurs 1-3 3.6 18:39:30 10° N 18:43:50 80° WNW 18:48:14 10° SSW
Cosmos 1727 Rocket 4.1 18:39:05 10° S 18:45:27 88° W 18:51:49 10° N
